COSMOS 2251 DEB

Satellite information

Favourite Embed

Satellite Type and Status

DEBRISIN ORBIT

Key statistics

Satellite COSMOS 2251 DEB at a glance.

Uptime

11869

Days in orbit

Revolutions

≈ 14.6

Per day

Orbit

LEO

Low Earth Orbit

Inclination

74.0

Latest

Satellite identification and parameters

Extended collection of information and parameters for COSMOS 2251 DEB.

Object identification

Identified? True

Debris? True

Object name: COSMOS 2251 DEB

International designator: 1993-036AKP

Object number (NORAD): 35445

Object ID (CCSDS): 35445

Country: COMMONWEALTH OF INDEPENDENT STATES (CIS)

Current information (Y/N): Y

RCS size: SMALL

Orbital parameters

Period: 98.695 minutes

Inclination: 74.0376 deg

SMA: 7074.421 km

Apoapsis: 797.943 km

Periapsis: 594.628 km

RAAN: 305.9887 deg

Eccentricy: 0.01436968

Argument of periapsis: 33.7492 deg

Mean anomaly: 327.2717 deg

Mean motion: 14.5903749 rev/day

Mean motion (dot): 0.00015858 rev/day2

B* drag term: 0.0029213682 1/REarth

Two-line elements (TLE)

Creation date: Dec. 10, 2025, 10:40 a.m.

Reference frame: TEME

Reference center: EARTH

Epoch: Dec. 9, 2025, 2:24 p.m. UTC

TLE line 0: 0 COSMOS 2251 DEB

TLE line 1: 1 35445U 93036AKP 25343.60049789 .00015858 00000-0 29214-2 0 9999

TLE line 2: 2 35445 74.0376 305.9887 0143697 33.7492 327.2717 14.59037490872837

Live tracking on map

Real-time ground track for satellite COSMOS 2251 DEB.

In-orbit conjunctions

A list of the most updated potential collisions computed for object COSMOS 2251 DEB.

Target Orbit TCA Probability of collision Miss distance Type
SL-24 R/B SSO 2025-09-25 06:25:50 0.0001340258 74.0 (m) ROCKET BODY
COSMOS 2056 LEO 2024-11-23 00:24:24 0.0002824859 405.0 (m) PAYLOAD

Associated space launch

Military communications satellite. Destroyed in a collision with Iridium 33.

COSMOS 2251 DEB was lifted into orbit during the mission ‘Kosmos-3M | Strela-2M 51’, on board a Kosmos-3M space rocket.

The launch took place on June 16, 1993, 4:17 a.m. from 132/1 (132L).

For more information about the launch, click the button.

Launch to space Kosmos-3M | Strela-2M 51
Kosmos-3M | Strela-2M 51

Agency: N/A

Status: Launch Successful

Launch date: June 16, 1993, 4:17 a.m. UTC

Rocket: Kosmos-3M

Launch pad: 132/1 (132L)

Location: Plesetsk Cosmodrome, Russian Federation

...

Latest news about this satellite

There are no fresh news available about this satellite. Check back as we update our databases every day.


Newsletter sign-up

Weekly statistics, charts and insights to help you stay on top of the space industry.